Location: Nairn
(57.5833°N, 3.8667°W)
Time: 02:21:42
(UTC+00:00)

Cosmos 1486 Rocket - Pass Details

Date: 07 August 2020
Orbit: 759 x 783 km, 74.1° (Epoch: 19 September)

Event Time Altitude Azimuth Distance (km) Brightness Sun altitude
Exits shadow 01:03:23 24° 208° (SSW) 1,550 5.0 -15.6°
Maximum altitude 01:06:37 90° 133° (SE) 769 4.0 -15.5°
Drops below altitude 10° 01:11:51 10° 30° (NNE) 2,303 7.7 -15.3°
Sets 01:14:14 0° 31° (NNE) 3,233 8.7 -15.3°
